Temp
15 15 14 14 15 15 15 14 13 13 13 13 12 12 12 11 11 11 11 11 11 11 11 11 12 11 11 11 12 12 12 12 12 12 12 12 11 11 11 10 10 9 9
16 16 15 15 15 15 15 14 14 14 13 12 12 12 12 11 11 11 11 11 11 11 11 11 11 11 11 11 11 11 11 12 12 12 12 12 9 11 11 11 10 10 10
16 16 16 15 14 14 14 14 14 12 12 13 13 13 12 11 11 11 11 11 11 11 11 11 11 11 11 11 11 11 11 11 11 11 12 12 11 10 10 10 10 10 9
17 16 15 14 14 14 13 13 14 13 13 13 13 12 12 12 11 11 10 11 11 11 11 11 11 11 11 11 11 11 11 11 11 11 11 11 10 9 9 9 9 9 9
15 14 13 13 13 14 14 13 14 13 13 13 12 12 11 11 10 10 10 11 11 11 11 11 11 11 11 11 11 11 11 11 10 10 10 10 10 9 9 9 9 9 9
14 13 13 13 13 13 13 13 14 13 12 12 11 11 11 10 10 10 10 10 11 11 11 11 11 11 11 11 11 11 11 11 10 9 9 9 9 9 8 8 8 8 9
12 12 11 11 13 13 12 12 13 12 12 11 11 10 10 10 10 10 10 10 10 10 10 10 10 10 10 10 11 11 10 10 10 9 9 9 9 9 8 8 7 8 8
12 12 12 11 11 12 11 11 11 11 11 10 10 10 10 10 9 9 9 9 9 9 9 9 9 9 9 9 9 10 10 9 8 8 9 9 8 7 7 7 7 8 7
10 10 11 10 10 10 11 11 11 10 10 10 10 10 9 9 9 9 9 9 9 9 9 9 8 8 8 8 8 8 8 8 8 8 8 8 8 7 7 7 7 7 7
9 10 10 9 10 10 10 11 10 10 10 9 9 8 8 9 8 9 9 9 9 9 8 8 6 6 7 7 7 7 8 7 7 7 7 7 7 7 7 6 6 6 6
10 9 9 10 10 10 10 10 9 9 8 8 8 8 8 8 8 8 8 8 8 7 7 6 5 5 5 6 6 7 7 6 7 7 7 6 6 6 6 6 6 6 5
9 10 10 9 9 9 9 9 8 8 7 7 7 7 7 7 7 7 7 7 5 4 4 4 4 4 5 6 6 7 6 6 6 6 6 6 6 6 6 6 5 5 5
9 9 9 9 9 8 8 7 7 7 7 6 6 5 6 7 7 7 6 5 3 3 3 3 3 4 4 5 6 6 6 6 6 6 6 6 6 5 5 5 5 5 5
9 8 8 8 7 7 7 7 7 6 6 5 5 5 5 6 6 6 5 4 3 3 2 2 3 3 4 5 5 6 6 5 5 5 6 5 5 5 5 5 5 5 5
7 7 7 7 7 6 6 6 6 5 5 4 4 4 5 5 5 5 5 4 3 1 0 2 2 2 3 4 4 4 4 4 4 4 5 5 5 5 4 2 4 5 5
7 7 6 6 6 6 6 5 5 4 4 4 3 4 4 3 4 4 4 3 1 -0 -0 1 1 2 2 2 2 2 2 3 3 3 3 3 3 3 1 3 1 3 4
6 6 6 6 5 5 4 4 4 4 4 3 3 3 3 3 3 3 2 2 1 0 1 -0 0 1 1 1 1 1 1 1 1 1 1 1 1 1 0 0 -1 -0 2
5 5 5 5 5 4 4 4 4 3 3 3 2 2 2 2 2 2 1 1 1 1 0 0 -0 -0 -0 -0 0 0 -0 -0 -0 -1 -0 -0 -0 0 -0 -0 -1 -2 -1
5 5 5 4 4 3 3 3 3 2 2 2 2 2 2 1 1 1 1 1 1 1 1 -0 -0 -0 0 -0 -0 -1 -1 -1 -1 -0 -1 -1 -2 -1 -1 -1 -1 -1 -1
4 4 4 4 3 3 3 3 2 2 2 1 1 1 1 1 -1 -0 0 0 -0 0 0 0 0 0 0 0 -0 0 -1 -1 -1 -1 -1 -1 -1 -2 -2 -2 -2 -2 -2
4 4 4 3 2 2 2 2 2 1 1 0 -0 0 0 1 0 -1 -1 -1 -1 -1 -0 1 -0 0 -1 -0 -0 -0 -1 -1 -1 -2 -1 -1 -2 -2 -2 -3 -3 -2 -3
3 3 3 2 2 1 1 1 1 0 -0 -1 -1 -1 0 1 0 -0 -1 -1 -1 -1 -1 -0 -1 -0 -1 -0 -0 -1 -1 -1 -1 -1 -1 -2 -2 -2 -2 -2 -2 -2 -2
3 3 2 2 1 0 1 1 -0 -1 -1 -1 -1 -0 -0 0 -0 -0 -1 -1 -1 -1 -1 -1 -1 0 -0 -1 -0 -0 -1 -1 -1 -1 -1 -2 -2 -2 -2 -2 -2 -2 -2
3 3 2 1 1 1 1 1 0 0 -0 -1 -1 -1 -1 -0 -0 -1 -1 -1 -1 -1 -1 -0 -0 0 0 -0 -1 -1 -1 -1 -1 -1 -1 -1 -1 -2 -2 -2 -2 -3 -3
2 3 3 2 1 1 0 1 0 -0 -1 -1 -1 -1 -0 -1 -1 -1 -1 -1 -1 -1 -1 0 0 0 0 0 0 -0 -0 0 -0 -0 -1 -1 -1 -1 -2 -2 -2 -2 -2
2 2 2 2 2 1 1 0 0 -1 -1 -1 -0 -1 -0 -0 -0 -1 -1 -1 -1 -1 -1 -1 0 0 0 -0 0 0 0 0 -0 -1 -1 -1 -1 -2 -2 -2 -2 -2 -2
Height
3178 3179 3180 3181 3183 3183 3183 3183 3184 3184 3184 3184 3183 3182 3180 3178 3175 3172 3169 3166 3163 3161 3159 3156 3154 3153 3152 3151 3148 3147 3145 3143 3139 3142 3143 3140 3133 3135 3134 3133 3133 3132 3132
3174 3174 3176 3177 3178 3179 3179 3180 3180 3179 3178 3177 3176 3175 3173 3170 3166 3163 3160 3157 3154 3151 3149 3146 3145 3143 3142 3141 3139 3136 3135 3134 3129 3127 3132 3131 3126 3125 3124 3124 3124 3123 3123
3170 3170 3171 3173 3175 3175 3176 3176 3175 3173 3172 3170 3169 3167 3164 3160 3157 3153 3150 3147 3144 3142 3139 3137 3135 3132 3130 3129 3127 3124 3122 3121 3119 3115 3116 3119 3116 3114 3114 3114 3114 3114 3113
3162 3163 3165 3167 3171 3170 3170 3170 3168 3167 3165 3163 3160 3157 3154 3151 3147 3143 3139 3136 3133 3130 3127 3124 3122 3119 3116 3114 3111 3110 3108 3105 3104 3102 3103 3105 3106 3106 3104 3104 3102 3105 3105
3158 3161 3163 3166 3166 3165 3166 3165 3163 3159 3156 3154 3152 3148 3144 3141 3136 3132 3128 3124 3120 3116 3113 3110 3106 3103 3101 3099 3096 3095 3093 3090 3089 3089 3090 3091 3092 3095 3093 3094 3094 3094 3095
3153 3157 3158 3160 3162 3159 3157 3159 3155 3152 3148 3145 3141 3138 3134 3130 3125 3121 3115 3110 3106 3102 3099 3096 3092 3089 3087 3084 3082 3080 3077 3075 3074 3075 3075 3076 3080 3082 3083 3082 3085 3085 3084
3144 3148 3148 3151 3151 3156 3151 3149 3147 3142 3140 3136 3131 3128 3125 3120 3116 3110 3104 3098 3094 3091 3086 3082 3078 3075 3072 3068 3065 3063 3061 3060 3059 3062 3061 3064 3067 3071 3072 3073 3076 3076 3073
3140 3141 3148 3150 3150 3145 3142 3139 3138 3135 3131 3127 3123 3119 3116 3109 3104 3100 3095 3089 3083 3079 3074 3069 3065 3062 3059 3055 3052 3049 3047 3047 3048 3049 3050 3053 3056 3060 3062 3065 3067 3066 3069
3140 3145 3134 3134 3139 3137 3136 3133 3130 3127 3122 3118 3115 3111 3106 3102 3096 3090 3084 3080 3074 3068 3063 3059 3054 3051 3049 3046 3041 3039 3037 3037 3039 3040 3040 3042 3046 3050 3054 3056 3058 3060 3061
3126 3127 3127 3133 3132 3130 3128 3125 3121 3119 3115 3112 3108 3104 3099 3093 3087 3082 3076 3070 3064 3059 3054 3049 3045 3042 3040 3037 3034 3032 3030 3030 3030 3031 3034 3037 3040 3042 3047 3048 3050 3053 3053
3123 3125 3125 3126 3125 3123 3120 3118 3115 3111 3108 3105 3100 3096 3091 3086 3081 3074 3067 3060 3054 3049 3044 3041 3037 3034 3032 3030 3027 3025 3024 3024 3025 3026 3029 3032 3034 3037 3040 3042 3043 3045 3046
3119 3121 3121 3119 3118 3116 3113 3110 3107 3105 3102 3097 3093 3090 3086 3081 3075 3068 3061 3052 3046 3041 3037 3032 3028 3027 3026 3024 3021 3020 3019 3018 3019 3021 3023 3026 3030 3032 3033 3035 3035 3035 3041
3117 3115 3114 3112 3110 3108 3106 3104 3102 3099 3095 3092 3089 3087 3083 3078 3072 3064 3056 3048 3042 3037 3032 3028 3025 3022 3021 3018 3015 3014 3013 3013 3015 3016 3019 3021 3025 3026 3028 3030 3030 3033 3036
3109 3108 3107 3106 3104 3102 3100 3098 3096 3093 3091 3088 3086 3084 3080 3075 3069 3061 3052 3045 3040 3035 3031 3026 3023 3021 3017 3014 3012 3010 3009 3008 3009 3010 3012 3013 3015 3017 3020 3022 3025 3029 3032
3104 3103 3102 3101 3099 3097 3095 3093 3091 3089 3088 3085 3083 3080 3076 3072 3065 3058 3051 3045 3038 3033 3029 3026 3023 3020 3017 3012 3008 3006 3005 3004 3004 3003 3005 3006 3008 3008 3014 3006 3013 3021 3026
3100 3099 3097 3095 3093 3091 3089 3088 3087 3085 3083 3081 3079 3076 3072 3069 3064 3060 3053 3045 3039 3036 3031 3027 3023 3019 3016 3013 3009 3005 3004 3002 3001 3000 3001 2999 2999 3000 3006 3006 3009 3012 3020
3094 3093 3092 3090 3088 3088 3087 3085 3083 3081 3079 3078 3076 3074 3071 3068 3063 3060 3055 3048 3041 3039 3035 3029 3025 3022 3018 3014 3010 3008 3006 3005 3003 3002 3003 3004 3005 3006 3001 3002 3007 3013 3015
3090 3089 3088 3086 3085 3084 3083 3081 3079 3078 3076 3075 3073 3072 3069 3066 3063 3059 3055 3051 3048 3042 3038 3034 3030 3026 3023 3019 3015 3013 3011 3010 3008 3006 3005 3005 3004 3004 3005 3008 3008 3010 3013
3086 3085 3083 3082 3082 3081 3080 3078 3076 3075 3074 3073 3072 3071 3069 3067 3064 3060 3058 3054 3052 3047 3041 3038 3035 3032 3030 3027 3023 3019 3016 3014 3013 3011 3010 3009 3008 3009 3011 3010 3010 3012 3016
3082 3081 3080 3079 3078 3077 3077 3076 3074 3073 3073 3072 3070 3069 3068 3066 3064 3063 3060 3056 3054 3050 3047 3043 3040 3038 3036 3033 3030 3027 3024 3021 3019 3017 3015 3015 3015 3015 3015 3015 3016 3017 3020
3077 3076 3076 3075 3074 3074 3074 3073 3073 3072 3071 3070 3069 3068 3068 3065 3063 3063 3060 3057 3055 3052 3049 3046 3044 3041 3039 3037 3034 3032 3031 3029 3026 3024 3023 3023 3022 3022 3022 3024 3024 3025 3025
3073 3072 3071 3071 3071 3071 3071 3070 3070 3069 3069 3069 3068 3067 3066 3064 3064 3063 3061 3059 3056 3052 3050 3047 3046 3044 3041 3039 3037 3035 3034 3033 3031 3030 3030 3029 3029 3028 3028 3028 3028 3028 3028
3068 3067 3066 3066 3066 3066 3066 3067 3066 3067 3067 3067 3067 3067 3065 3065 3064 3063 3060 3059 3054 3052 3050 3048 3046 3044 3042 3040 3038 3037 3035 3034 3033 3032 3032 3031 3030 3029 3029 3029 3028 3027 3028
3062 3061 3060 3061 3061 3061 3062 3063 3062 3063 3064 3066 3067 3065 3065 3065 3063 3061 3058 3057 3054 3052 3050 3048 3046 3044 3042 3040 3038 3037 3036 3035 3034 3032 3032 3031 3030 3029 3030 3029 3027 3026 3025
3056 3054 3054 3055 3055 3057 3057 3057 3058 3062 3063 3064 3064 3064 3063 3062 3061 3058 3058 3055 3053 3051 3049 3048 3046 3045 3043 3042 3040 3038 3037 3036 3034 3033 3032 3031 3031 3029 3028 3027 3026 3024 3022
3047 3047 3047 3047 3048 3051 3052 3052 3054 3059 3060 3061 3060 3060 3060 3061 3059 3058 3056 3055 3052 3051 3048 3047 3045 3044 3043 3041 3040 3039 3038 3036 3035 3033 3032 3030 3028 3027 3025 3022 3020 3018 3016
Wind_Speed
27 27 27 26 24 21 21 21 19 19 21 23 25 28 30 32 34 35 38 38 39 38 36 35 34 35 34 34 35 37 36 38 42 37 35 37 41 34 33 33 31 31 33
30 31 30 30 26 22 19 20 20 22 25 27 31 34 36 35 39 41 41 41 42 40 38 38 38 38 39 40 42 44 43 42 45 45 39 40 39 40 37 34 35 35 36
28 28 28 29 25 20 19 19 23 26 29 32 33 35 36 39 40 40 40 40 41 42 42 43 43 44 45 45 46 47 48 46 46 48 46 41 41 42 38 37 37 37 36
34 24 24 18 16 19 21 26 31 32 32 33 33 35 35 37 39 41 42 44 44 45 45 46 47 48 49 49 50 51 50 49 49 49 47 42 39 38 41 37 38 35 33
22 17 14 13 17 20 21 29 36 34 35 36 36 35 37 39 42 44 46 47 48 49 49 50 51 51 51 51 51 52 52 54 50 48 49 44 40 39 41 35 35 35 30
19 9 4 15 18 28 29 28 40 40 37 38 37 39 41 45 47 49 52 53 51 50 49 47 47 46 46 46 47 48 50 51 51 45 44 44 38 34 37 38 34 37 34
12 22 18 20 18 39 45 43 44 38 38 38 41 41 44 47 50 51 48 46 45 44 44 44 44 43 43 44 44 43 43 44 45 41 42 39 34 33 38 35 31 28 32
21 13 12 16 25 36 37 34 34 37 38 39 41 42 46 48 44 43 41 42 42 41 42 41 41 40 39 39 39 38 38 37 32 33 34 30 31 33 35 33 30 27 25
17 24 13 27 36 32 31 34 36 38 39 39 41 43 38 38 38 39 39 39 38 38 38 38 36 35 33 31 33 31 30 29 28 29 28 28 30 32 31 32 32 28 26
18 19 24 31 32 30 34 38 38 37 37 39 35 33 33 34 36 37 37 39 39 39 37 34 31 33 30 27 28 26 23 20 22 23 23 26 27 29 30 32 30 24 23
17 21 24 29 30 33 35 34 34 35 31 29 28 28 29 30 31 34 37 38 38 33 30 28 28 25 22 22 24 22 20 20 20 21 23 24 26 26 30 33 32 25 22
16 23 27 27 27 29 31 30 26 25 24 24 23 23 22 23 32 35 36 33 29 26 23 22 20 21 21 20 20 20 18 19 19 21 23 24 24 26 25 22 23 22 26
17 19 20 24 26 25 23 21 21 20 19 19 19 19 21 29 31 32 33 30 27 24 23 20 18 20 18 17 14 17 17 18 20 20 22 24 24 26 23 21 20 23 21
15 17 20 21 21 20 19 19 18 18 17 17 17 18 21 26 25 28 30 28 24 22 19 16 15 15 15 16 19 18 15 19 21 24 26 28 26 29 28 33 26 24 21
13 16 17 18 18 17 17 16 17 17 17 16 15 17 21 23 25 29 31 29 27 23 17 16 16 14 17 13 9 9 8 11 14 16 26 28 31 33 26 20 24 27 24
17 14 13 14 14 14 14 15 15 15 15 13 13 15 17 17 20 24 28 27 22 23 18 16 15 14 15 11 9 10 8 7 8 10 10 21 31 32 30 33 19 27 24
12 11 12 12 12 12 13 15 16 14 12 12 12 14 14 15 18 20 26 31 25 19 19 21 15 9 8 12 15 17 13 15 12 3 8 15 16 17 16 17 14 15 19
9 11 11 11 11 11 12 13 13 10 9 9 10 10 12 13 16 18 21 26 28 22 16 18 22 21 21 18 12 8 13 16 12 10 9 7 3 7 9 10 13 17 17
12 11 10 10 12 12 11 12 10 8 7 7 7 7 8 11 14 15 15 18 18 25 23 13 17 19 20 23 22 23 22 21 13 4 9 11 5 4 12 14 8 14 11
12 11 11 11 12 11 10 11 8 6 6 6 5 6 7 11 12 12 14 14 13 14 16 16 15 14 15 16 18 20 19 21 21 16 15 17 17 16 13 15 19 16 14
13 13 13 12 11 11 10 9 8 5 5 5 4 5 6 9 10 9 11 11 11 12 12 8 12 12 12 12 15 15 14 14 15 15 17 16 15 16 13 10 10 8 4
15 15 14 13 14 13 10 10 10 8 6 6 6 6 5 9 9 8 8 8 9 10 12 11 9 11 10 9 9 10 12 11 10 11 12 10 8 8 8 5 2 2 1
19 20 20 18 18 16 12 15 11 9 8 7 5 4 8 6 6 8 9 9 10 9 10 10 9 9 11 11 8 8 10 10 9 6 7 9 7 7 5 3 7 6 7
22 22 23 23 23 18 17 18 10 11 10 8 6 6 6 6 8 10 8 7 8 8 9 8 8 10 10 8 7 10 7 8 9 7 7 9 10 8 5 6 8 7 8
24 26 23 24 26 21 16 16 7 7 9 8 7 8 6 6 9 6 8 8 7 4 6 7 9 9 9 8 7 6 7 7 7 7 8 9 10 11 11 12 13 15 16
24 22 20 20 23 23 20 19 10 9 9 8 6 7 6 8 6 8 6 7 6 6 5 5 6 6 6 6 7 7 9 10 10 10 11 14 16 17 20 22 23 21 24
Wind_Direction
235 240 240 242 247 251 258 262 267 280 286 288 292 292 293 291 289 291 296 295 291 292 292 288 287 287 283 281 281 283 285 288 290 291 289 291 287 287 284 285 277 271 271
241 246 243 253 250 251 257 266 272 277 283 287 289 291 290 291 292 295 294 292 292 292 292 290 289 285 283 283 283 284 284 285 285 286 284 284 277 287 279 277 281 278 275
254 252 250 244 250 257 262 269 275 280 285 288 290 291 292 293 294 293 292 292 290 290 290 289 288 287 286 285 284 283 283 284 284 284 285 282 281 282 278 273 274 275 274
250 231 230 225 243 260 259 266 275 277 283 287 290 291 295 296 296 294 294 294 293 292 291 290 288 287 286 286 285 285 285 285 283 281 282 281 273 273 275 270 272 271 270
214 199 199 232 256 259 280 291 281 281 284 287 290 297 302 303 302 302 299 298 297 296 294 291 289 287 286 286 284 282 281 280 277 276 276 273 268 264 265 266 265 265 264
177 156 214 309 292 293 285 280 270 283 285 287 297 303 305 305 304 302 301 299 297 295 294 291 289 287 286 283 280 279 277 275 274 271 269 267 264 259 260 260 258 258 271
232 259 278 294 314 272 289 280 279 280 285 295 302 304 304 302 301 300 299 300 300 298 296 295 293 292 290 288 287 283 277 273 271 267 264 263 257 253 255 257 253 270 278
234 291 285 277 250 269 280 277 282 287 292 299 300 302 301 302 303 302 302 302 302 301 298 297 297 296 294 294 290 287 280 272 269 265 262 256 245 249 250 245 245 253 271
268 284 292 233 259 276 282 285 286 292 300 300 300 300 302 301 302 304 306 304 302 302 300 298 296 294 292 293 292 290 284 273 264 260 250 243 242 244 238 242 247 254 257
258 247 237 260 273 280 284 288 293 296 296 299 300 301 303 307 309 309 308 306 304 302 299 294 290 290 291 291 290 289 284 280 258 245 238 241 242 240 239 237 235 246 245
250 261 265 267 277 281 284 290 291 297 300 301 303 308 313 318 319 317 313 309 307 307 303 294 288 286 287 285 287 286 278 271 254 245 236 232 236 239 238 242 247 239 234
258 263 267 273 280 285 288 294 298 298 300 304 312 319 323 325 328 333 335 327 322 320 320 310 301 297 292 290 284 281 273 262 252 244 240 229 231 238 246 245 239 229 234
260 272 286 289 290 292 294 294 297 301 306 311 314 313 306 316 331 338 342 333 328 329 328 315 319 310 305 304 298 277 266 256 250 241 234 240 242 238 235 238 243 227 216
296 301 297 295 295 297 299 301 303 307 308 308 309 307 317 333 342 352 358 354 341 332 322 318 321 329 324 294 286 280 264 250 246 244 235 233 235 240 238 235 225 217 212
310 307 302 299 299 300 302 306 308 306 303 306 309 313 330 338 350 359 359 356 357 349 341 333 325 330 323 334 325 287 284 269 255 258 248 240 233 215 231 167 185 201 208
311 302 302 305 303 300 301 298 297 298 302 307 312 325 340 349 4 7 9 5 3 360 353 344 359 360 354 350 7 2 359 339 313 286 275 214 201 214 185 186 170 192 202
303 307 306 303 300 301 302 307 311 308 310 312 321 334 345 349 350 355 14 21 23 11 10 25 21 17 59 66 72 60 56 41 34 346 240 217 207 219 188 158 161 163 179
311 316 312 310 301 296 298 303 304 311 322 323 331 345 354 2 5 10 17 25 26 20 22 37 50 42 33 24 11 357 31 49 45 42 14 10 301 259 244 227 185 167 164
304 307 306 301 294 293 295 305 307 309 316 314 323 339 350 360 6 16 19 24 21 31 31 45 50 47 49 49 46 44 38 37 36 337 94 93 76 345 322 311 282 226 224
303 306 308 298 289 282 288 307 313 309 309 312 310 335 350 0 10 3 6 15 21 27 33 43 57 53 44 49 50 48 45 39 38 48 64 72 74 73 67 67 68 61 69
301 302 301 289 273 270 281 307 311 297 305 312 285 309 336 351 17 357 12 6 22 20 21 24 28 24 31 35 38 45 41 52 59 37 40 49 56 46 50 43 51 61 94
292 290 291 283 272 267 276 288 300 285 287 295 289 302 328 1 10 350 356 4 357 7 16 15 23 18 27 32 27 20 43 43 42 40 40 44 58 48 38 44 48 12 332
287 287 281 276 271 265 271 277 280 275 273 271 272 307 337 331 321 333 327 326 343 354 354 5 11 24 18 28 45 33 21 24 33 47 33 13 6 4 6 315 303 321 278
286 287 283 266 269 265 261 268 271 264 239 237 261 290 316 302 315 321 335 326 323 335 352 7 15 9 7 7 16 23 17 8 10 17 357 357 0 358 347 349 336 297 293
286 285 277 266 254 255 259 262 231 254 240 249 252 257 267 297 301 336 325 325 324 327 351 0 10 15 28 25 25 18 8 7 4 357 353 345 339 331 332 321 311 313 311
285 281 271 261 250 243 244 246 245 227 226 240 246 259 267 287 286 315 322 317 318 318 337 340 341 346 350 349 354 356 1 358 350 341 332 327 322 319 315 313 310 308 305